Weather History for Watford City, ND

Change the Weather History Date:

Friday, March 28, 2014

  Actual Average (KISN) Record (KISN)
Temperature  
Mean Temperature 21 °F 35 °F  
Max Temperature 28 °F 47 °F 74 °F (1986)
Min Temperature 14 °F 23 °F -17 °F (1898)
Degree Days  
Heating Degree Days 44 30  
Month to date heating degree days 1020  
Since 1 July heating degree days 7788  
Cooling Degree Days 0 0  
Month to date cooling degree days 0  
Year to date cooling degree days 0  
Moisture  
Dew Point 18 °F    
Average Humidity 80    
Maximum Humidity 100    
Minimum Humidity 51    
Precipitation  
Precipitation 0.24 in 0.02 in 0.64 in (1896)
Month to date precipitation 0.63  
Year to date precipitation 1.61  
Sea Level Pressure  
Sea Level Pressure 30.02 in    
Wind  
Wind Speed 6 mph (SE)    
Max Wind Speed 13 mph    
Max Gust Speed -    
Visibility 7 miles    
Events Snow    
T = Trace of Precipitation, MM = Missing Value Source: NWS Daily Summary

Daily Weather History Graph

Daily Weather History Graph

Search for Another Location

Airport:

Trip Planner

Search our weather history database for the weather conditions in past years. The results will help you decide how hot, cold, wet, or windy it might be!

Date:

Astronomy

Mar. 28, 2014 Rise Set
Actual Time 7:39 AM CDT 8:17 PM CDT
Civil Twilight 7:08 AM CDT 8:48 PM CDT
Nautical Twilight 6:31 AM CDT 9:25 PM CDT
Astronomical Twilight 5:52 AM CDT 10:04 PM CDT
Moon 6:21 AM CDT (3/28) 6:09 PM CDT (3/28)
Length of Visible Light 13h 40m
Length of Day
12h 37m
Waning Crescent, 6% of the Moon is Illuminated
Mar 28
Waning Crescent
Mar 30
New
Apr 7
First Quarter
Apr 15
Full
Apr 22
Last Quarter

Hourly Weather History & Observations

Time (CDT) Temp. Windchill Dew Point Humidity Pressure Visibility Wind Dir Wind Speed Gust Speed Precip Events Conditions
12:15 AM 26.6 °F 16.8 °F 10.4 °F 51% 29.90 in 10.0 mi ESE 10.4 mph - N/A   Clear
12:35 AM 26.6 °F 16.8 °F 10.4 °F 51% 29.90 in 10.0 mi East 10.4 mph - N/A   Partly Cloudy
12:55 AM 24.8 °F 14.0 °F 12.2 °F 59% 29.90 in 10.0 mi East 11.5 mph - N/A   Partly Cloudy
1:15 AM 24.8 °F 14.0 °F 12.2 °F 59% 29.91 in 10.0 mi East 11.5 mph - N/A   Scattered Clouds
1:35 AM 24.8 °F 14.0 °F 12.2 °F 59% 29.91 in 10.0 mi East 11.5 mph - N/A   Partly Cloudy
1:55 AM 24.8 °F 13.4 °F 12.2 °F 59% 29.90 in 10.0 mi East 12.7 mph - N/A   Clear
2:15 AM 23.0 °F 13.1 °F 14.0 °F 68% 29.91 in 10.0 mi East 9.2 mph - N/A   Clear
2:35 AM 23.0 °F 15.8 °F 14.0 °F 68% 29.92 in 10.0 mi East 5.8 mph - N/A   Clear
2:55 AM 23.0 °F - 14.0 °F 68% 29.93 in 10.0 mi Calm Calm - N/A   Mostly Cloudy
3:15 AM 23.0 °F - 14.0 °F 68% 29.93 in 10.0 mi Calm Calm - N/A   Overcast
3:35 AM 23.0 °F - 14.0 °F 68% 29.94 in 10.0 mi Calm Calm - N/A   Overcast
3:55 AM 23.0 °F 18.4 °F 14.0 °F 68% 29.95 in 10.0 mi ESE 3.5 mph - N/A   Overcast
4:15 AM 23.0 °F 18.4 °F 15.8 °F 74% 29.96 in 10.0 mi SSE 3.5 mph - N/A   Overcast
4:35 AM 23.0 °F 13.1 °F 15.8 °F 74% 29.96 in 4.0 mi SSE 9.2 mph - N/A Snow Light Snow
4:55 AM 23.0 °F 14.7 °F 17.6 °F 80% 29.97 in 5.0 mi SE 6.9 mph - N/A Snow Light Snow
5:15 AM 23.0 °F 14.7 °F 17.6 °F 80% 29.97 in 8.0 mi ESE 6.9 mph - N/A Snow Light Snow
5:35 AM 21.2 °F 13.6 °F 17.6 °F 86% 29.97 in 4.0 mi SE 5.8 mph - 0.02 in Snow Light Snow
5:55 AM 21.2 °F 11.7 °F 17.6 °F 86% 29.98 in 3.0 mi SE 8.1 mph - 0.04 in Snow Light Snow
6:15 AM 21.2 °F 13.6 °F 17.6 °F 86% 29.98 in 5.0 mi ESE 5.8 mph - N/A Snow Light Snow
6:35 AM 21.2 °F 12.6 °F 17.6 °F 86% 29.99 in 10.0 mi ESE 6.9 mph - 0.01 in Snow Light Snow
6:55 AM 21.2 °F 13.6 °F 17.6 °F 86% 30.00 in 3.0 mi ESE 5.8 mph - 0.05 in Snow Light Snow
7:15 AM 19.4 °F 11.5 °F 17.6 °F 93% 30.01 in 2.5 mi ESE 5.8 mph - 0.01 in Snow Light Snow
7:35 AM 19.4 °F 12.8 °F 19.4 °F 100% 30.01 in 5.0 mi East 4.6 mph - 0.02 in Snow Light Snow
7:55 AM 21.2 °F 16.4 °F 19.4 °F 93% 30.02 in 3.0 mi East 3.5 mph - 0.03 in Snow Light Snow
8:15 AM 21.2 °F 16.4 °F 19.4 °F 93% 30.03 in 2.0 mi ESE 3.5 mph - N/A Snow Light Snow
8:35 AM 21.2 °F 16.4 °F 19.4 °F 93% 30.04 in 1.5 mi ESE 3.5 mph - 0.03 in Snow Light Snow
8:55 AM 21.2 °F 16.4 °F 19.4 °F 93% 30.05 in 1.2 mi ESE 3.5 mph - 0.05 in Snow Light Snow
9:15 AM 21.2 °F 16.4 °F 19.4 °F 93% 30.05 in 1.5 mi ESE 3.5 mph - 0.01 in Snow Light Snow
9:35 AM 23.0 °F 15.8 °F 19.4 °F 86% 30.05 in 1.2 mi SE 5.8 mph - 0.04 in Snow Light Snow
9:55 AM 23.0 °F 15.8 °F 19.4 °F 86% 30.05 in 2.5 mi SE 5.8 mph - 0.05 in Snow Light Snow
10:15 AM 23.0 °F 13.9 °F 19.4 °F 86% 30.05 in 2.0 mi SE 8.1 mph - N/A Snow Light Snow
10:35 AM 23.0 °F 14.7 °F 19.4 °F 86% 30.06 in 7.0 mi SE 6.9 mph - N/A Snow Light Snow
10:55 AM 24.8 °F 16.9 °F 19.4 °F 80% 30.06 in 10.0 mi SE 6.9 mph - N/A   Overcast
11:15 AM 24.8 °F 15.3 °F 19.4 °F 80% 30.06 in 8.0 mi SE 9.2 mph - N/A Snow Light Snow
11:35 AM 24.8 °F 16.9 °F 19.4 °F 80% 30.07 in 5.0 mi SSE 6.9 mph - N/A Snow Light Snow
11:55 AM 24.8 °F 16.1 °F 19.4 °F 80% 30.07 in 6.0 mi SE 8.1 mph - N/A Snow Light Snow
12:15 PM 24.8 °F 17.9 °F 19.4 °F 80% 30.07 in 4.0 mi SE 5.8 mph - N/A Snow Light Snow
12:35 PM 24.8 °F 16.1 °F 19.4 °F 80% 30.07 in 1.5 mi SSE 8.1 mph - 0.02 in Snow Light Snow
12:55 PM 24.8 °F 16.1 °F 19.4 °F 80% 30.07 in 3.0 mi SSE 8.1 mph - 0.02 in Snow Light Snow
1:15 PM 24.8 °F 14.6 °F 19.4 °F 80% 30.07 in 3.0 mi SE 10.4 mph - N/A Snow Light Snow
1:35 PM 24.8 °F 15.3 °F 19.4 °F 80% 30.07 in 5.0 mi SSE 9.2 mph - N/A   Haze
1:55 PM 26.6 °F 18.2 °F 21.2 °F 80% 30.07 in 3.0 mi SSE 8.1 mph - N/A Snow Light Snow
2:15 PM 26.6 °F 19.1 °F 19.4 °F 74% 30.07 in 3.0 mi SSE 6.9 mph - N/A Snow Light Snow
2:35 PM 26.6 °F 19.1 °F 19.4 °F 74% 30.07 in 5.0 mi SSE 6.9 mph - N/A   Haze
2:55 PM 26.6 °F 20.0 °F 19.4 °F 74% 30.07 in 6.0 mi SE 5.8 mph - N/A   Overcast
3:15 PM 26.6 °F 21.2 °F 19.4 °F 74% 30.06 in 10.0 mi SE 4.6 mph - N/A   Overcast
3:35 PM 26.6 °F 20.0 °F 19.4 °F 74% 30.06 in 10.0 mi SE 5.8 mph - N/A   Overcast
3:55 PM 26.6 °F 19.1 °F 21.2 °F 80% 30.06 in 10.0 mi SE 6.9 mph - N/A   Overcast
4:15 PM 26.6 °F 20.0 °F 21.2 °F 80% 30.06 in 10.0 mi ESE 5.8 mph - N/A   Overcast
4:35 PM 26.6 °F 21.2 °F 23.0 °F 86% 30.06 in 10.0 mi ESE 4.6 mph - N/A   Overcast
4:55 PM 26.6 °F 20.0 °F 21.2 °F 80% 30.05 in 10.0 mi East 5.8 mph - N/A   Overcast
5:15 PM 26.6 °F 22.6 °F 21.2 °F 80% 30.06 in 10.0 mi East 3.5 mph - N/A   Overcast
5:35 PM 28.4 °F 24.6 °F 21.2 °F 74% 30.06 in 10.0 mi East 3.5 mph - N/A   Overcast
5:55 PM 28.4 °F 24.6 °F 21.2 °F 74% 30.05 in 10.0 mi ESE 3.5 mph - N/A   Overcast
6:15 PM 28.4 °F - 21.2 °F 74% 30.05 in 10.0 mi Calm Calm - N/A   Overcast
6:35 PM 28.4 °F - 23.0 °F 80% 30.05 in 10.0 mi Calm Calm - N/A   Overcast
6:55 PM 28.4 °F - 23.0 °F 80% 30.05 in 10.0 mi Calm Calm - N/A   Overcast
7:15 PM 28.4 °F - 23.0 °F 80% 30.05 in 10.0 mi Calm Calm - N/A   Overcast
7:35 PM 28.4 °F - 23.0 °F 80% 30.05 in 10.0 mi Calm Calm - N/A   Overcast
7:55 PM 28.4 °F 24.6 °F 23.0 °F 80% 30.04 in 10.0 mi East 3.5 mph - N/A   Overcast
8:15 PM 28.4 °F - 23.0 °F 80% 30.04 in 10.0 mi Calm Calm - N/A   Overcast
8:35 PM 28.4 °F - 23.0 °F 80% 30.04 in 10.0 mi Calm Calm - N/A   Overcast
8:55 PM 26.6 °F - 23.0 °F 86% 30.04 in 10.0 mi Calm Calm - N/A   Overcast
9:15 PM 26.6 °F - 23.0 °F 86% 30.04 in 10.0 mi Calm Calm - N/A   Mostly Cloudy
9:35 PM 21.2 °F 16.4 °F 17.6 °F 86% 30.03 in 10.0 mi South 3.5 mph - N/A   Partly Cloudy
9:55 PM 15.8 °F 10.2 °F 14.0 °F 93% 30.03 in 10.0 mi South 3.5 mph - N/A   Scattered Clouds
10:15 PM 15.8 °F - 14.0 °F 93% 30.03 in 10.0 mi Calm Calm - N/A   Partly Cloudy
10:35 PM 15.8 °F - 14.0 °F 93% 30.02 in 10.0 mi Calm Calm - N/A   Clear
10:55 PM 15.8 °F - 15.8 °F 100% 30.02 in 10.0 mi Calm Calm - N/A   Clear
11:15 PM 14.0 °F - 12.2 °F 93% 30.01 in 10.0 mi Calm Calm - N/A   Clear
11:35 PM 14.0 °F - 14.0 °F 100% 29.99 in 10.0 mi Calm Calm - N/A   Clear
11:55 PM 14.0 °F - 10.4 °F 86% 29.99 in 10.0 mi Calm Calm - N/A   Clear